Regional Weather Roundup
Issued by NWS Huntsville, AL

Home | Current Version | Previous Version | Text Only | Print | Product List | Glossary On
Versions: 1 2 3 4 5 6 7 8 9 10 11 12 13 14 15 16 17 18 19 20 21 22 23 24 25 26 27
000
ASUS44 KHUN 180410
RWRHUN

WEATHER ROUNDUP FOR THE TENNESSEE VALLEY
NATIONAL WEATHER SERVICE HUNTSVILLE AL
1000 PM CST WED JAN 17 2018

ALZ001>004-180500-
NORTHWEST ALABAMA

CITY           SKY/WX    TMP DP  RH WIND       PRES   REMARKS
COURTLAND HCN    N/A     16 N/A N/A CALM        N/A
RUSSELLVILLE     N/A     12 N/A N/A MISG        N/A
SHOALS AIRPORT FAIR      18   8  65 VRB6      30.59S WCI  10
SHOALS TVA RES   N/A     18 N/A N/A MISG        N/A
$$

ALZ005>007-016-180500-
NORTH CENTRAL ALABAMA

CITY           SKY/WX    TMP DP  RH WIND       PRES   REMARKS
CULLMAN AG STN   N/A     16 N/A N/A CALM        N/A
DECATUR AP     FAIR      15   9  76 NW3       30.58R
HUNTSVILLE AP  FAIR      16   9  74 CALM      30.56S
MERIDIANVILLE  FAIR      14   9  79 N3        30.55S
REDSTONE ARSN  FAIR      14   8  78 NE6       30.55S WCI   5
VINEMONT AP    FAIR      15   7  71 CALM      30.55R
$$

ALZ008>010-180500-
NORTHEAST ALABAMA

CITY           SKY/WX    TMP DP  RH WIND       PRES   REMARKS
ALBERTVILLE    FAIR      18  12  79 N8        30.49S WCI   7
FORT PAYNE     FAIR      14   7  73 CALM      30.51S
SCOTTSBORO AP  FAIR      16   9  73 N5        30.55S WCI   9
SCOTTSBORO HCN   N/A     14 N/A N/A MISG        N/A
VALLEY HEAD      N/A     14 N/A N/A MISG        N/A
$$

TNZ076-096-097-180500-
SOUTHEASTERN MIDDLE TENNESSEE

CITY           SKY/WX    TMP DP  RH WIND       PRES   REMARKS
TULLAHOMA      CLEAR      9   5  85 N5        30.51F WCI   0
WINCHESTER     CLEAR      9   7  92 CALM      30.52F
$$

...SURROUNDING SITES...

CITY           SKY/WX    TMP DP  RH WIND       PRES   REMARKS
ATLANTA        FAIR      20   9  62 NW17      30.39F WCI   5
ANNISTON       FAIR      19   9  65 NW6       30.53R WCI  11
BIRMINGHAM     FAIR      19   9  65 N5        30.58R WCI  12
CHATTANOOGA    FAIR      16   8  71 N7        30.52F WCI   6
CORINTH        FAIR      16   9  73 CALM      30.60F
DALTON         FAIR      16  10  79 N10       30.51F WCI   3
GADSDEN        FAIR      16  10  77 N6        30.55R WCI   7
GOLDEN TRNGL   FAIR      17  11  77 NW5       30.61S WCI  10
HALEYVILLE     FAIR      14  10  84 N3        30.57R
JACKSON TN     FAIR       4   1  88 CALM      30.61F
MEMPHIS        FAIR      16  10  77 CALM      30.61F
NASHVILLE      FAIR      12   7  80 S3        30.58F
OXFORD MS      FAIR      14  10  85 NW3       30.63S
ROME           FAIR      18   9  68 N10       30.50S WCI   6
SAVANNAH       CLEAR     12   9  85 CALM      30.60S
SELMER         CLEAR     10   7  85 CALM      30.59S
TUPELO         FAIR      17   9  70 NW5       30.61S WCI  10
TUSCALOOSA     FAIR      21  12  68 N6        30.61S WCI  13
$$

...GULF COAST WEATHER...

CITY           SKY/WX    TMP DP  RH WIND       PRES   REMARKS
GULFPORT       FAIR      27  13  55 N7        30.59S WCI  19
PASCAGOULA     FAIR      25  12  58 N7        30.59S WCI  17
MOBILE         FAIR      24  11  57 N7        30.58R WCI  16
GULF SHORES    FAIR      25  11  56 CALM      30.58R
PENSACOLA      FAIR      26  12  55 N8        30.56R WCI  18
DESTIN         FAIR      30  12  47 N10       30.53S WCI  21
PANAMA CITY    FAIR      27  11  50 N7        30.52R WCI  20
APPALACHICOLA  FAIR      28  11  48 N13G22    30.48R WCI  17
$$





USA.gov is the U.S. government's official web portal to all federal, state and local government web resources and services.